| time (UTC) | temp F | wind direction | speed MPH | gust MPH | rain 1hr in | rain 24hr in | rain mn in | humidity % | barometer mb |
| 20260904114601 | 73 | 215 | 0.0 | 0.0 | 0.00 | 0.00 | 0.00 | 81 | 1013.6 |
| 20260904113031 | 73 | 212 | 0.0 | 2.0 | 0.00 | 0.00 | 0.00 | 81 | 1013.5 |
| 20260904111513 | 74 | 182 | 0.0 | 2.0 | 0.00 | 0.00 | 0.00 | 80 | 1013.4 |
| 20260904110047 | 75 | 195 | 0.0 | 2.0 | 0.00 | 0.00 | 0.00 | 78 | 1013.2 |
| 20260904104528 | 75 | 283 | 0.0 | 2.0 | 0.00 | 0.00 | 0.00 | 77 | 1013.2 |
| 20260904103058 | 75 | 285 | 0.0 | 2.0 | 0.00 | 0.00 | 0.00 | 77 | 1013.1 |
| 20260904101542 | 76 | 285 | 0.0 | 0.0 | 0.00 | 0.00 | 0.00 | 76 | 1013.0 |
| 20260904100023 | 76 | 285 | 0.0 | 2.0 | 0.00 | 0.00 | 0.00 | 75 | 1013.0 |
| 20260904094602 | 77 | 288 | 0.0 | 2.0 | 0.00 | 0.00 | 0.00 | 74 | 1012.9 |
| 20260904093039 | 77 | 288 | 0.0 | 2.0 | 0.00 | 0.00 | 0.00 | 72 | 1012.6 |
| 20260904091515 | 78 | 216 | 0.0 | 1.0 | 0.00 | 0.00 | 0.00 | 72 | 1012.5 |
| 20260904090105 | 78 | 342 | 0.0 | 2.0 | 0.00 | 0.00 | 0.00 | 71 | 1012.5 |
| 20260904084533 | 79 | 225 | 0.0 | 2.0 | 0.00 | 0.00 | 0.00 | 70 | 1012.3 |
| 20260904083013 | 79 | 217 | 0.0 | 2.0 | 0.00 | 0.00 | 0.00 | 70 | 1012.2 |
| 20260904081548 | 79 | 205 | 0.0 | 2.0 | 0.00 | 0.00 | 0.00 | 69 | 1012.1 |
| 20260904080031 | 79 | 183 | 1.0 | 4.0 | 0.00 | 0.00 | 0.00 | 69 | 1012.1 |
| 20260904074517 | 79 | 146 | 0.0 | 3.0 | 0.00 | 0.00 | 0.00 | 68 | 1012.0 |
| 20260904073058 | 79 | 273 | 0.0 | 4.0 | 0.00 | 0.00 | 0.00 | 68 | 1012.1 |
| 20260904071533 | 80 | 241 | 0.0 | 6.0 | 0.00 | 0.00 | 0.00 | 67 | 1012.0 |
| 20260904070011 | 80 | 248 | 0.0 | 4.0 | 0.00 | 0.00 | 0.00 | 67 | 1012.1 |
| 20260904064553 | 80 | 231 | 0.0 | 3.0 | 0.00 | 0.00 | 0.00 | 66 | 1012.1 |
| 20260904063033 | 80 | 148 | 0.0 | 2.0 | 0.00 | 0.00 | 0.00 | 66 | 1012.1 |
| 20260904061518 | 81 | 141 | 0.0 | 3.0 | 0.00 | 0.00 | 0.00 | 65 | 1012.2 |
| 20260904060049 | 81 | 184 | 0.0 | 6.0 | 0.00 | 0.00 | 0.00 | 64 | 1012.1 |
| 20260904054523 | 81 | 240 | 1.0 | 5.0 | 0.00 | 0.00 | 0.00 | 64 | 1012.1 |
| 20260904053105 | 81 | 224 | 0.0 | 3.0 | 0.00 | 0.00 | 0.00 | 64 | 1012.1 |
| 20260904053004 | 81 | 217 | 0.0 | 3.0 | 0.00 | 0.00 | 0.00 | 64 | 1012.1 |
| 20260904051543 | 81 | 166 | 0.0 | 5.0 | 0.00 | 0.00 | 0.00 | 63 | 1012.1 |
| 20260904050032 | 82 | 167 | 1.0 | 4.0 | 0.00 | 0.00 | 0.00 | 62 | 1012.0 |
| 20260904044600 | 82 | 181 | 1.0 | 4.0 | 0.00 | 0.00 | 0.00 | 62 | 1012.0 |
| 20260904044501 | 82 | 144 | 0.0 | 4.0 | 0.00 | 0.00 | 0.00 | 62 | 1012.0 |
| 20260904043055 | 82 | 167 | 0.0 | 4.0 | 0.00 | 0.00 | 0.00 | 61 | 1012.0 |
| 20260904041523 | 83 | 276 | 1.0 | 4.0 | 0.00 | 0.00 | 0.00 | 60 | 1012.1 |
| 20260904040009 | 83 | 200 | 0.0 | 5.0 | 0.00 | 0.00 | 0.00 | 59 | 1012.0 |
| 20260904034550 | 84 | 137 | 0.0 | 8.0 | 0.00 | 0.00 | 0.00 | 58 | 1012.0 |
| 20260904033028 | 84 | 202 | 1.0 | 2.0 | 0.00 | 0.00 | 0.00 | 57 | 1012.0 |
| 20260904031520 | 84 | 235 | 0.0 | 5.0 | 0.00 | 0.00 | 0.00 | 57 | 1012.0 |
| 20260904030055 | 85 | 151 | 1.0 | 5.0 | 0.00 | 0.00 | 0.00 | 56 | 1011.9 |
| 20260904024541 | 85 | 217 | 0.0 | 4.0 | 0.00 | 0.00 | 0.00 | 55 | 1011.8 |
| 20260904023025 | 86 | 202 | 1.0 | 8.0 | 0.00 | 0.00 | 0.00 | 54 | 1011.7 |
| 20260904021512 | 86 | 217 | 1.0 | 4.0 | 0.00 | 0.00 | 0.00 | 54 | 1011.5 |
| 20260904020055 | 86 | 159 | 1.0 | 3.0 | 0.00 | 0.00 | 0.00 | 54 | 1011.4 |
| 20260904014533 | 86 | 239 | 0.0 | 2.0 | 0.00 | 0.00 | 0.00 | 54 | 1011.2 |
| 20260904013022 | 87 | 169 | 0.0 | 4.0 | 0.00 | 0.00 | 0.00 | 53 | 1010.9 |
| 20260904011553 | 87 | 138 | 0.0 | 3.0 | 0.00 | 0.00 | 0.00 | 52 | 1010.7 |
| 20260904010037 | 88 | 150 | 0.0 | 4.0 | 0.00 | 0.00 | 0.00 | 50 | 1010.6 |
| 20260904004521 | 89 | 135 | 0.0 | 5.0 | 0.00 | 0.00 | 0.00 | 49 | 1010.6 |
| 20260904003005 | 90 | 132 | 1.0 | 3.0 | 0.00 | 0.00 | 0.00 | 48 | 1010.4 |
| 20260904001547 | 91 | 159 | 1.0 | 3.0 | 0.00 | 0.00 | 0.00 | 46 | 1010.4 |
| 20260904000025 | 92 | 134 | 0.0 | 3.0 | 0.00 | 0.00 | 0.00 | 44 | 1010.4 |
| 20260903234557 | 93 | 182 | 0.0 | 2.0 | 0.00 | 0.00 | 0.00 | 42 | 1010.3 |
| 20260903233033 | 94 | 161 | 0.0 | 4.0 | 0.00 | 0.00 | 0.00 | 41 | 1010.2 |
| 20260903231511 | 94 | 153 | 1.0 | 5.0 | 0.00 | 0.00 | 0.00 | 39 | 1010.2 |
| 20260903230052 | 95 | 195 | 2.0 | 7.0 | 0.00 | 0.00 | 0.00 | 39 | 1010.0 |
| 20260903224534 | 95 | 174 | 2.0 | 7.0 | 0.00 | 0.00 | 0.00 | 39 | 1010.1 |
| 20260903223022 | 96 | 189 | 1.0 | 8.0 | 0.00 | 0.00 | 0.00 | 39 | 1010.2 |
| 20260903221556 | 97 | 122 | 1.0 | 5.0 | 0.00 | 0.00 | 0.00 | 38 | 1010.2 |
| 20260903220039 | 97 | 353 | 2.0 | 7.0 | 0.00 | 0.00 | 0.00 | 39 | 1010.1 |
| 20260903214528 | 97 | 182 | 1.0 | 8.0 | 0.00 | 0.00 | 0.00 | 40 | 1010.2 |
| 20260903213057 | 97 | 163 | 2.0 | 6.0 | 0.00 | 0.00 | 0.00 | 40 | 1010.3 |
| 20260903211538 | 99 | 95 | 2.0 | 8.0 | 0.00 | 0.00 | 0.00 | 39 | 1010.4 |
| 20260903210020 | 99 | 149 | 2.0 | 7.0 | 0.00 | 0.00 | 0.00 | 40 | 1010.5 |
| 20260903204559 | 99 | 139 | 0.0 | 4.0 | 0.00 | 0.00 | 0.00 | 41 | 1010.6 |
| 20260903203036 | 98 | 255 | 2.0 | 10.0 | 0.00 | 0.00 | 0.00 | 39 | 1010.7 |
| 20260903201531 | 98 | 251 | 2.0 | 5.0 | 0.00 | 0.00 | 0.00 | 40 | 1010.9 |
| 20260903200100 | 98 | 200 | 2.0 | 6.0 | 0.00 | 0.00 | 0.00 | 38 | 1011.2 |
| 20260903194537 | 98 | 145 | 2.0 | 8.0 | 0.00 | 0.00 | 0.00 | 40 | 1011.2 |
| 20260903193015 | 97 | 177 | 2.0 | 9.0 | 0.00 | 0.00 | 0.00 | 41 | 1011.3 |
| 20260903191555 | 97 | 88 | 1.0 | 7.0 | 0.00 | 0.00 | 0.00 | 41 | 1011.7 |
| 20260903190036 | 96 | 196 | 4.0 | 11.0 | 0.00 | 0.00 | 0.00 | 42 | 1011.9 |
| 20260903184520 | 97 | 106 | 1.0 | 7.0 | 0.00 | 0.00 | 0.00 | 43 | 1011.9 |
| 20260903183059 | 96 | 134 | 1.0 | 5.0 | 0.00 | 0.00 | 0.00 | 44 | 1012.3 |
| 20260903183002 | 96 | 90 | 1.0 | 8.0 | 0.00 | 0.00 | 0.00 | 44 | 1012.3 |
| 20260903181537 | 94 | 267 | 4.0 | 12.0 | 0.00 | 0.00 | 0.00 | 44 | 1012.5 |
| 20260903180031 | 94 | 264 | 2.0 | 15.0 | 0.00 | 0.00 | 0.00 | 45 | 1012.7 |
| 20260903174558 | 94 | 327 | 1.0 | 10.0 | 0.00 | 0.00 | 0.00 | 47 | 1012.8 |
| 20260903173045 | 93 | 150 | 4.0 | 10.0 | 0.00 | 0.00 | 0.00 | 46 | 1013.0 |
| 20260903171528 | 93 | 176 | 3.0 | 9.0 | 0.00 | 0.00 | 0.00 | 47 | 1013.3 |
| 20260903170015 | 93 | 202 | 3.0 | 7.0 | 0.00 | 0.00 | 0.00 | 46 | 1013.3 |
| 20260903164602 | 92 | 231 | 1.0 | 8.0 | 0.00 | 0.00 | 0.00 | 50 | 1013.4 |
| 20260903164501 | 91 | 227 | 1.0 | 8.0 | 0.00 | 0.00 | 0.00 | 49 | 1013.4 |
| 20260903163035 | 92 | 142 | 1.0 | 10.0 | 0.00 | 0.00 | 0.00 | 50 | 1013.5 |
| 20260903161521 | 91 | 229 | 2.0 | 12.0 | 0.00 | 0.00 | 0.00 | 51 | 1013.5 |
| 20260903160058 | 91 | 360 | 2.0 | 8.0 | 0.00 | 0.00 | 0.00 | 51 | 1013.7 |
| 20260903154545 | 90 | 249 | 2.0 | 10.0 | 0.00 | 0.00 | 0.00 | 52 | 1013.9 |
| 20260903153017 | 89 | 269 | 2.0 | 8.0 | 0.00 | 0.00 | 0.00 | 55 | 1013.9 |
| 20260903151610 | 88 | 248 | 1.0 | 8.0 | 0.00 | 0.00 | 0.00 | 57 | 1013.9 |
| 20260903150043 | 88 | 182 | 2.0 | 8.0 | 0.00 | 0.00 | 0.00 | 57 | 1013.8 |
| 20260903144523 | 86 | 255 | 3.0 | 8.0 | 0.00 | 0.00 | 0.00 | 59 | 1013.8 |
| 20260903143106 | 85 | 184 | 3.0 | 11.0 | 0.00 | 0.00 | 0.00 | 62 | 1014.0 |
| 20260903141539 | 84 | 244 | 2.0 | 8.0 | 0.00 | 0.00 | 0.00 | 64 | 1014.1 |
| 20260903140013 | 83 | 268 | 4.0 | 9.0 | 0.00 | 0.00 | 0.00 | 65 | 1014.2 |
| 20260903134549 | 83 | 191 | 2.0 | 8.0 | 0.00 | 0.00 | 0.00 | 67 | 1014.3 |
| 20260903133028 | 82 | 269 | 2.0 | 6.0 | 0.00 | 0.00 | 0.00 | 67 | 1014.2 |
| 20260903131511 | 81 | 123 | 2.0 | 7.0 | 0.00 | 0.00 | 0.00 | 69 | 1014.2 |
| 20260903130043 | 81 | 207 | 0.0 | 3.0 | 0.00 | 0.00 | 0.00 | 70 | 1014.1 |
| 20260903124527 | 79 | 221 | 0.0 | 3.0 | 0.00 | 0.00 | 0.00 | 72 | 1014.1 |
| 20260903123051 | 78 | 281 | 0.0 | 2.0 | 0.00 | 0.00 | 0.00 | 74 | 1014.1 |
| 20260903121535 | 77 | 227 | 0.0 | 3.0 | 0.00 | 0.00 | 0.00 | 76 | 1014.0 |
| 20260903120018 | 76 | 198 | 0.0 | 2.0 | 0.00 | 0.00 | 0.00 | 77 | 1013.9 |